Regional Weather Roundup
Issued by NWS Green Bay, WI

Home | Current Version | Previous Version | Graphics & Text | Print | Product List | Glossary Off
Versions: 1 2 3 4 5 6 7 8 9 10 11 12 13 14 15 16 17 18 19 20 21 22 23 24 25 26 27 28 29 30 31 32 33 34 35 36 37 38 39 40 41 42 43 44 45 46 47 48 49 50

000
ASUS43 KGRB 011100
RWRGRB

NORTH-CENTRAL AND NORTHEAST WISCONSIN REGIONAL WEATHER ROUNDUP
NATIONAL WEATHER SERVICE GREEN BAY WI
600 AM CDT SAT OCT 01 2016

WIZ005-009-010>012-018-019-011200-
NORTH CENTRAL WISCONSIN

CITY           SKY/WX    TMP DP  RH WIND       PRES   REMARKS
IRONWOOD       CLOUDY    45  45 100 CALM      30.23S
MANITOWISH WTR NOT AVBL
ARBOR VITAE    NOT AVBL
EAGLE RIVER    NOT AVBL
LAND O LAKES   NOT AVBL
RHINELANDER    CLOUDY    53  51  93 NE5       30.20S
PHILLIPS       NOT AVBL
ANTIGO         NOT AVBL
TOMAHAWK       NOT AVBL
MERRILL        NOT AVBL
$$

WIZ013-073-011200-
NORTHEAST WISCONSIN

CITY           SKY/WX    TMP DP  RH WIND       PRES   REMARKS
IRON MOUNTAIN  LGT RAIN  54  50  86 NW3       30.19S FOG
MARINETTE      CLOUDY    58  55  90 NE7       30.16S
$$

WIZ017-030-035>037-045-011200-
CENTRAL WISCONSIN

CITY           SKY/WX    TMP DP  RH WIND       PRES   REMARKS
MEDFORD        NOT AVBL
WAUSAU         LGT RAIN  54  52  93 N5        30.15F
MOSINEE        NOT AVBL
MARSHFIELD     CLOUDY    55  51  86 NE8       30.15S
WISC RAPIDS    LGT RAIN  58  56  93 NE8       30.15S
STEVENS POINT  NOT AVBL
WAUPACA        NOT AVBL
SHAWANO        NOT AVBL
CLINTONVILLE   NOT AVBL
WAUTOMA        CLOUDY    58  57  97 NE9       30.12F
$$

WIZ038-039-048-051-011200-
FOX VALLEY

CITY           SKY/WX    TMP DP  RH WIND       PRES   REMARKS
NWS GREEN BAY  CLOUDY    60  58  92 NE8       30.12F
APPLETON       CLOUDY    57  57 100 VRB6      30.11S
OSHKOSH        CLOUDY    59  57  93 NE9       30.10F
FOND DU LAC    CLOUDY    59  57  93 E8        30.09F
$$

WIZ022-050-052-011200-
EAST CENTRAL WISCONSIN

CITY           SKY/WX    TMP DP  RH WIND       PRES   REMARKS
EPHRAIM        NOT AVBL
WASHINGTON ISL NOT AVBL
STURGEON BAY   CLOUDY    61  56  83 NE6       30.14F
MANITOWOC      NOT AVBL
SHEBOYGAN      CLOUDY    59  56  89 NE9       30.09F
$$

LMZ563-521-522-541>543-011200-
LAKESHORE

STATION/POSITION TIME  TEMP    WIND        PRES    VSBY  WAVE
                       AIR SEA DIR/SP/G                  HT/PER
                 (UTC) (F)     (DEG/KT/KT) (MB)    (MI)  (FT/S)
SHEBOYGAN LKSHOR 1000   60      50/ 11/ 12 1018.9F
KEWAUNEE LKSHORE 1000   61      80/ 11/ 15 1019.7F
NORTHPORT PIER   1000   63      70/ 13/ 15 1021.0F
N MID LAKE BUOY  0950   63 64   90/ 16/ 19 1020.7S         4/ 5
S GREEN BAY BUOY 1000   62 62   50/ 12/ 14 1020.1F
CHAMBERS ISLAND  1000   62      30/ 11/ 13 1020.7F
MENOMINEE LKSHOR 1000   62      30/ 12/ 14 1020.2F
$$



USA.gov is the U.S. government's official web portal to all federal, state and local government web resources and services.